[[{"header":{"parameterUnit":"m.s-1","parameterCategory":1,"la1":30.2991,"la2":30.254,"lo1":-89.0895,"lo2":-89.0444,"dy":0.0017,"dx":0.0017,"nx":28,"ny":28,"refTime":"2025-03-06T09:00:00:Z","depth":0,"parameterNumber":2,"parameterNumberName":"U-component_of_WINDS"},"data":[0,0,0,0,0,0,0,0,0,0,0,0,0,0,0,0,0,0,0,0,0,0,0,0,0,0,0,0,0,0,0,0,0,0,0,0,0,0,0,0,0,0,0,0,0,0,0,0,0,0,0,0,0,0,0,0,0,0,-1.3971,-1.397,0,-1.3902,-1.3902,-1.3901,-1.3853,-1.3853,-1.3853,-1.3852,-1.3779,-1.3778,-1.3776,0,0,0,0,0,0,0,0,0,0,0,0,0,-1.4058,-1.4057,-1.3971,-1.397,-1.3969,-1.3903,-1.3902,-1.3901,-1.3854,-1.3853,-1.3853,-1.3852,-1.378,-1.3778,-1.3776,0,0,0,0,0,0,0,0,0,0,0,0,0,-1.4008,-1.4056,-1.3971,-1.3938,-1.3934,-1.3903,-1.3902,-1.39,-1.3854,-1.3853,-1.3853,-1.3852,-1.378,-1.3778,-1.3776,-1.3771,0,0,-1.3768,-1.3767,0,0,0,0,0,0,0,0,-1.4011,-1.4005,-1.3944,-1.394,-1.3936,-1.3886,-1.3905,-1.3857,-1.3854,-1.3884,-1.3852,-1.3852,-1.3815,-1.381,-1.3798,-1.3768,-1.3764,-1.3768,-1.3766,-1.3765,-1.3765,0,0,0,0,0,0,0,-1.4014,-1.4007,-1.3944,-1.3943,-1.3938,-1.3925,-1.3918,-1.3896,-1.3853,-1.3881,-1.3878,-1.387,-1.3813,-1.38,-1.3796,-1.3763,-1.3768,-1.3766,-1.3764,-1.3763,-1.3725,-1.3725,0,0,0,0,0,0,-1.4024,-1.4011,-1.3946,-1.3942,-1.3973,-1.3924,-1.3916,-1.3902,-1.3853,-1.3845,-1.3871,-1.3869,-1.3805,-1.3799,-1.3793,-1.3784,-1.3765,-1.3763,-1.3762,-1.3724,-1.3725,-1.3725,0,0,0,0,0,0,-1.4026,-1.4018,-1.3949,-1.3975,-1.3965,-1.3923,-1.3909,-1.3901,-1.3889,-1.3846,-1.3837,-1.3866,-1.3804,-1.3796,-1.3777,-1.378,-1.3762,-1.376,-1.3724,-1.3724,-1.3725,-1.3766,0,0,0,0,0,0,-1.4028,-1.4019,-1.4018,-1.3976,-1.3964,-1.3935,-1.3909,-1.39,-1.3885,-1.3881,-1.3839,-1.3831,-1.3803,-1.3781,-1.3774,-1.3777,-1.3758,-1.3723,-1.3724,-1.3725,-1.3764,-1.3767,-1.3771,0,0,0,0,0,-1.4032,-1.4032,-1.4018,-1.401,-1.3962,-1.3935,-1.3928,-1.3897,-1.3886,-1.3883,-1.3855,-1.3833,-1.3781,-1.3779,-1.3772,-1.3773,-1.3723,-1.3724,-1.3725,-1.3762,-1.3767,-1.3771,0,0,0,0,0,0,-1.4075,-1.4025,-1.401,-1.3996,-1.397,-1.3927,-1.3923,-1.3903,-1.3879,-1.3876,-1.3837,-1.3827,-1.3812,-1.379,-1.3789,-1.3766,-1.3749,-1.3749,-1.378,-1.3784,-1.3788,-1.3793,-1.3756,0,0,0,0,0,-1.4083,-1.4066,-1.4024,-1.4016,-1.4004,-1.3966,-1.3953,-1.3931,-1.3902,-1.3891,-1.3861,-1.3833,-1.381,-1.3796,-1.3773,-1.3761,-1.375,-1.3758,-1.3761,-1.3765,-1.3764,-1.3755,-1.3758,-1.3728,-1.3728,-1.3728,0,0,-1.4099,-1.407,-1.4062,-1.4024,-1.4001,-1.3984,-1.3957,-1.394,-1.3926,-1.3887,-1.3867,-1.3845,-1.3811,-1.3795,-1.3786,-1.3776,-1.377,-1.3766,-1.3769,-1.3767,-1.3756,-1.3759,-1.3762,-1.3729,-1.3729,-1.3729,0,0,-1.4119,-1.4096,-1.4087,-1.4065,-1.4031,-1.4006,-1.4004,-1.3963,-1.3947,-1.3926,-1.3897,-1.3879,-1.3842,-1.3818,-1.3802,-1.3813,-1.3791,-1.3806,-1.3825,-1.3816,-1.3818,-1.382,-1.3823,-1.3825,-1.3806,-1.3807,-1.3807,0,-1.4143,-1.4117,-1.4084,-1.4069,-1.4053,-1.4018,-1.4007,-1.3987,-1.3947,-1.3936,-1.3926,-1.3878,-1.3852,-1.383,-1.3833,-1.382,-1.3816,-1.3811,-1.3821,-1.3822,-1.3824,-1.3826,-1.3828,-1.3809,-1.3808,-1.3808,-1.3808,0,-1.4148,-1.413,-1.4126,-1.4089,-1.4073,-1.406,-1.4024,-1.4011,-1.399,-1.3966,-1.3945,-1.3913,-1.3882,-1.3876,-1.3855,-1.385,-1.3845,-1.3829,-1.3811,-1.3829,-1.3831,-1.3832,-1.3812,-1.3811,-1.381,-1.381,0,0,-1.4193,-1.4138,-1.4138,-1.412,-1.408,-1.4065,-1.405,-1.4021,-1.401,-1.3984,-1.3969,-1.3938,-1.3923,-1.3904,-1.388,-1.3873,-1.3883,-1.3857,-1.3856,-1.3862,-1.3874,-1.3886,-1.3888,-1.3868,-1.3868,-1.3868,-1.3876,0,-1.4207,-1.418,-1.4149,-1.4132,-1.4114,-1.4081,-1.4068,-1.4041,-1.4018,-1.3999,-1.3972,-1.3951,-1.3933,-1.3921,-1.3912,-1.3884,-1.3884,-1.3883,-1.3853,-1.3852,-1.3862,-1.3889,-1.3901,-1.3911,-1.3877,-1.3877,-1.3877,0,-1.4219,-1.4195,-1.4176,-1.4137,-1.4129,-1.4118,-1.4088,-1.4071,-1.404,-1.4023,-1.4002,-1.3977,-1.3958,-1.3944,-1.3917,-1.3916,-1.3902,-1.3886,-1.3886,-1.3881,-1.3866,-1.3884,-1.3913,-1.3914,-1.3878,-1.3878,-1.3878,0,-1.4254,-1.4216,-1.42,-1.4186,-1.414,-1.4133,-1.4114,-1.4082,-1.4066,-1.404,-1.4029,-1.4001,-1.3986,-1.3964,-1.3931,-1.3924,-1.3908,-1.389,-1.3892,-1.3893,-1.389,-1.389,-1.3916,-1.3882,-1.3882,-1.3882,-1.3882,0,-1.4272,-1.4261,-1.4214,-1.4204,-1.4191,-1.4156,-1.4144,-1.4121,-1.4093,-1.4077,-1.4046,-1.4032,-1.399,-1.397,-1.3944,-1.3925,-1.3919,-1.3904,-1.3897,-1.3906,-1.3908,-1.3896,-1.3894,-1.3883,-1.3883,-1.3882,-1.3882,0,-1.4307,-1.4276,-1.4256,-1.4214,-1.4203,-1.4196,-1.4159,-1.4148,-1.4123,-1.4103,-1.4096,-1.4056,-1.4031,-1.3997,-1.3961,-1.3943,-1.3928,-1.3917,-1.3939,-1.3934,-1.3938,-1.3938,-1.3956,-1.3957,-1.3924,-1.3924,-1.3924,0,-1.4321,-1.4312,-1.427,-1.4257,-1.4239,-1.4219,-1.4203,-1.4168,-1.4152,-1.4116,-1.4108,-1.4081,-1.4057,-1.4019,-1.3986,-1.3958,-1.3946,-1.3954,-1.3941,-1.3951,-1.3945,-1.3946,-1.3944,-1.3957,-1.3958,-1.3958,-1.3959,0,-1.4348,-1.4332,-1.4311,-1.4284,-1.4266,-1.4243,-1.4218,-1.4209,-1.4169,-1.4152,-1.4127,-1.4109,-1.4072,-1.4045,-1.4013,-1.3991,-1.3968,-1.3963,-1.3962,-1.3971,-1.3983,-1.3976,-1.3946,-1.3963,-1.3962,-1.3962,-1.3962,-1.3962,-1.4372,-1.4362,-1.4331,-1.4308,-1.4286,-1.4263,-1.425,-1.4224,-1.4202,-1.417,-1.4151,-1.4126,-1.4093,-1.4048,-1.4027,-1.4006,-1.3997,-1.3996,-1.3995,-1.3995,-1.3998,-1.3988,-1.4,-1.4,-1.4,-1.4,-1.4,0,-1.4397,-1.4375,-1.4354,-1.4321,-1.4302,-1.4283,-1.4254,-1.424,-1.4219,-1.4191,-1.4169,-1.4139,-1.4112,-1.4078,-1.4048,-1.4038,-1.4027,-1.4031,-1.4031,-1.4027,-1.4008,-1.4012,-1.4041,-1.4041,-1.4041,-1.4041,-1.4041,-1.4041,-1.4407,-1.439,-1.4371,-1.4341,-1.4319,-1.4295,-1.428,-1.4259,-1.4237,-1.4205,-1.4183,-1.4161,-1.413,-1.4098,-1.4073,-1.4063,-1.4053,-1.4061,-1.4048,-1.4032,-1.4028,-1.4024,-1.4028,-1.406,-1.406,-1.4068,-1.4068,-1.4068]},{"header":{"parameterUnit":"m.s-1","parameterCategory":1,"la1":30.2991,"la2":30.254,"lo1":-89.0895,"lo2":-89.0444,"dy":0.0017,"dx":0.0017,"nx":28,"ny":28,"refTime":"2025-03-06T09:00:00:Z","depth":0,"parameterNumber":3,"parameterNumberName":"V-component_of_WINDS"},"data":[0,0,0,0,0,0,0,0,0,0,0,0,0,0,0,0,0,0,0,0,0,0,0,0,0,0,0,0,0,0,0,0,0,0,0,0,0,0,0,0,0,0,0,0,0,0,0,0,0,0,0,0,0,0,0,0,0,0,4.135,4.1351,0,4.1442,4.1443,4.1444,4.1431,4.1429,4.1428,4.1426,4.1517,4.1521,4.1524,0,0,0,0,0,0,0,0,0,0,0,0,0,4.116,4.1164,4.1349,4.1351,4.1352,4.1442,4.1443,4.1444,4.1431,4.1429,4.1427,4.1425,4.1516,4.152,4.1525,0,0,0,0,0,0,0,0,0,0,0,0,0,4.1246,4.1165,4.1349,4.1356,4.1358,4.1442,4.1443,4.1445,4.1431,4.1429,4.1427,4.1424,4.1514,4.152,4.1525,4.1607,0,0,4.1543,4.1545,0,0,0,0,0,0,0,0,4.1241,4.1253,4.1354,4.1356,4.1358,4.1423,4.141,4.1499,4.1432,4.1403,4.1426,4.1423,4.1487,4.1495,4.1517,4.1611,4.1615,4.1543,4.1547,4.1549,4.1551,0,0,0,0,0,0,0,4.1235,4.1249,4.1386,4.1355,4.1358,4.1354,4.1364,4.1426,4.1457,4.1405,4.1405,4.1416,4.1488,4.1512,4.1519,4.1617,4.1543,4.1548,4.1552,4.1554,4.1787,4.179,0,0,0,0,0,0,4.1228,4.1244,4.1383,4.1389,4.1293,4.1359,4.137,4.1404,4.1456,4.1462,4.1418,4.1415,4.1503,4.1512,4.1522,4.1625,4.1549,4.1555,4.1558,4.1785,4.1788,4.1791,0,0,0,0,0,0,4.1224,4.1241,4.1379,4.1317,4.1334,4.1365,4.1403,4.1407,4.1431,4.1466,4.1471,4.1437,4.1501,4.1514,4.1588,4.1628,4.1557,4.1563,4.1781,4.1786,4.1789,4.1829,0,0,0,0,0,0,4.1219,4.1239,4.1271,4.1317,4.1337,4.1443,4.1405,4.141,4.1442,4.1439,4.1485,4.149,4.1501,4.1579,4.1593,4.1634,4.1567,4.1778,4.1783,4.1788,4.1824,4.1834,4.1842,0,0,0,0,0,4.1212,4.1276,4.1272,4.1289,4.1378,4.1446,4.1457,4.1469,4.1445,4.1477,4.15,4.1489,4.1621,4.1587,4.1603,4.1646,4.1775,4.1782,4.1788,4.182,4.1832,4.1842,0,0,0,0,0,0,4.1231,4.1282,4.1279,4.136,4.1399,4.1443,4.1484,4.148,4.1525,4.1521,4.1532,4.1543,4.1618,4.1639,4.16,4.173,4.1695,4.1704,4.1714,4.1725,4.1734,4.1728,4.1572,0,0,0,0,0,4.1245,4.1297,4.1339,4.1407,4.1427,4.1452,4.1482,4.1488,4.1528,4.1544,4.1572,4.1611,4.1661,4.1694,4.1742,4.1827,4.1838,4.1865,4.1874,4.1881,4.189,4.194,4.1953,4.1811,4.1811,4.1811,0,0,4.1274,4.1309,4.134,4.1412,4.1442,4.1496,4.1466,4.1523,4.1563,4.1552,4.1625,4.1647,4.1691,4.1771,4.1808,4.1791,4.1931,4.1889,4.1894,4.1899,4.1947,4.1961,4.1973,4.1815,4.1814,4.1814,0,0,4.1355,4.1386,4.1448,4.148,4.1528,4.1545,4.156,4.1606,4.1621,4.1694,4.1689,4.1736,4.1822,4.1855,4.1883,4.198,4.1973,4.1995,4.2043,4.2091,4.2103,4.2113,4.215,4.2164,4.2003,4.2004,4.2004,0,4.1385,4.1467,4.1479,4.1539,4.1572,4.1567,4.163,4.166,4.1721,4.1744,4.1724,4.1835,4.1864,4.1954,4.1978,4.2,4.2018,4.1991,4.21,4.211,4.212,4.2156,4.217,4.2006,4.2006,4.2006,4.2005,0,4.1502,4.1559,4.1603,4.1666,4.1703,4.1763,4.1786,4.1822,4.1826,4.1845,4.1921,4.1956,4.2013,4.2034,4.2037,4.2126,4.2115,4.2097,4.2062,4.2136,4.217,4.2184,4.201,4.2009,4.2008,4.2008,0,0,4.1597,4.1668,4.1684,4.1714,4.1768,4.1812,4.1874,4.1932,4.1964,4.2006,4.206,4.2134,4.212,4.2152,4.2158,4.2201,4.228,4.2179,4.218,4.2199,4.2384,4.2399,4.2414,4.2275,4.2278,4.228,4.2382,0,4.1685,4.1796,4.1811,4.1909,4.1964,4.1961,4.2015,4.2054,4.2075,4.2124,4.2145,4.22,4.2175,4.2195,4.2237,4.2262,4.2318,4.2254,4.2326,4.2329,4.2318,4.2432,4.2446,4.2541,4.2395,4.2397,4.2399,0,4.1803,4.1853,4.1957,4.2008,4.2031,4.2079,4.2136,4.2182,4.2227,4.2239,4.2277,4.2279,4.2344,4.2306,4.2396,4.2353,4.2383,4.24,4.2404,4.2413,4.2369,4.2446,4.2571,4.2586,4.2419,4.2418,4.2416,0,4.1866,4.1958,4.2033,4.2058,4.2118,4.2153,4.2179,4.2223,4.2258,4.2306,4.233,4.2384,4.2415,4.2457,4.2475,4.2445,4.2566,4.2528,4.2579,4.2579,4.2605,4.2604,4.2739,4.2621,4.2621,4.262,4.262,0,4.1964,4.2029,4.2063,4.211,4.2183,4.2199,4.2271,4.2296,4.2335,4.2387,4.2387,4.2435,4.2454,4.2506,4.252,4.2595,4.2607,4.262,4.2623,4.2622,4.262,4.2643,4.2638,4.2624,4.2623,4.2623,4.2622,0,4.2047,4.2072,4.2155,4.2206,4.2221,4.2273,4.2316,4.2362,4.2383,4.2449,4.2465,4.2498,4.2559,4.2581,4.2654,4.2664,4.2752,4.2748,4.2737,4.2739,4.279,4.2786,4.2946,4.2969,4.2833,4.2834,4.2835,0,4.2109,4.216,4.2218,4.2254,4.2282,4.2339,4.2376,4.2395,4.2433,4.2491,4.253,4.2592,4.2642,4.2741,4.2771,4.2828,4.2827,4.288,4.2836,4.2834,4.2832,4.283,4.2837,4.2888,4.289,4.2891,4.2892,0,4.2218,4.2229,4.2283,4.2343,4.2388,4.2435,4.2481,4.251,4.2535,4.2579,4.2643,4.2683,4.276,4.2822,4.2881,4.2908,4.2906,4.2905,4.2921,4.2921,4.2914,4.2922,4.2763,4.2902,4.2901,4.29,4.2899,4.2899,4.2295,4.2341,4.2391,4.2452,4.2489,4.2532,4.2579,4.2608,4.2662,4.2728,4.2735,4.2805,4.2852,4.2932,4.2962,4.3017,4.3003,4.3024,4.303,4.3036,4.3042,4.2904,4.3028,4.3027,4.3027,4.3027,4.3027,0,4.2407,4.2439,4.2495,4.2561,4.261,4.2604,4.2656,4.2697,4.2759,4.2804,4.2855,4.293,4.2991,4.3028,4.3089,4.3127,4.3127,4.3142,4.3141,4.3148,4.3049,4.3031,4.3141,4.3141,4.3141,4.3141,4.3141,4.3141,4.2471,4.255,4.2568,4.2666,4.2698,4.2768,4.2798,4.2839,4.2876,4.2961,4.3013,4.3036,4.3079,4.3144,4.32,4.3209,4.3233,4.3251,4.3259,4.3166,4.3154,4.3143,4.3127,4.3255,4.3255,4.3353,4.3354,4.3355]}]]